User: anonymous   Login
Location: Boston
(42.3580°N, 71.0600°W)
Time: 05:25:58
(UTC-04:00)
Language:

OTV 5 (USA 277) - Orbit

View from above orbital plane
View from above orbital plane
View from above satellite
View from above satellite

Ground track
Ground track

The orbit data is extracted from the following two-line orbital elements,

1 42932U 17052A   18172.00549212 0.00000000  00000-0  00000-0 0    00
2 42932  54.5145 160.0567 0004791  29.0251 330.9748 15.84843887    01
Epoch (UTC): 21 June 2018 00:07:54
Eccentricity: 0.0004791
inclination: 54.5145°
perigee height: 313 km
apogee height: 320 km
right ascension of ascending node: 160.0567°
argument of perigee: 29.0251°
revolutions per day: 15.84843887
mean anomaly at epoch: 330.9748°
orbit number at epoch: 0

The dashed part of the orbit path shows where the satellite is in the earth's shadow,  

DLR